Westrac — WTH4325 — position and weather

sailwx.info

Track history (hours):
 
Tides and Currents Weather Stations Pressure Air Temp Water Temp Dewpoint Dewpoint Depression Visibility Wind Speed Wind Dir Waves Ship Positions

Westrac

Owner: WESTERN TOWBOAT CO, SEATTLE, WA. More information available from US FCC via Universal Licensing System and Coast Guard Vessel Documentation Center.

Last reported at 2014-Oct-25 18:07 UTC. Time now 2014-Oct-25 20:35 UTC.
Position N 47°34' W 122°21'.

Length 23 m; draft 5 m.

Type: Tug. MMSI: 366993010.

Date/timePositionNaut miles runAvg speedWind from/ knotsBaromVisibWave heightAir tempDewpointWater temp
2014-Oct-25 18:07N 47°34' W 122°21'0 0.4
2014-Oct-25 18:04N 47°34' W 122°21'1 1.5
2014-Oct-25 17:33N 47°33' W 122°21'1 8.4
2014-Oct-25 17:28N 47°34' W 122°21'1 1.5
2014-Oct-25 16:33N 47°35' W 122°21'0 0.2
2014-Oct-25 16:28N 47°35' W 122°21'1 0.1
2014-Oct-25 00:57N 47°34' W 122°21'1 3.1
2014-Oct-25 00:33N 47°35' W 122°22'0 3.8
2014-Oct-25 00:32N 47°35' W 122°22'2 2.3
2014-Oct-24 23:33N 47°33' W 122°20'0 7.4
2014-Oct-24 23:32N 47°33' W 122°21'2 2.4
2014-Oct-24 22:33N 47°35' W 122°22'0 0.6
2014-Oct-24 22:31N 47°36' W 122°22'3 2.9
2014-Oct-24 21:33N 47°33' W 122°20'0 2.4
2014-Oct-24 21:31N 47°33' W 122°20'0 0.2
2014-Oct-24 20:33N 47°33' W 122°20'1 3.6
2014-Oct-24 20:10N 47°34' W 122°21'1 2.1
2014-Oct-24 19:33N 47°35' W 122°21'0 0.0
2014-Oct-24 19:30N 47°35' W 122°21'0 0.0
2014-Oct-24 18:33N 47°35' W 122°21'2 5.8
2014-Oct-24 18:14N 47°34' W 122°21'1 0.9
2014-Oct-24 17:33N 47°34' W 122°21'0 0.1
2014-Oct-24 17:29N 47°34' W 122°21'0 0.0
2014-Oct-24 16:33N 47°34' W 122°21'0 0.1
2014-Oct-24 16:28N 47°34' W 122°21'0 0.0
2014-Oct-24 15:33N 47°34' W 122°21'0 0.0
2014-Oct-24 15:29N 47°34' W 122°21'0 0.0
2014-Oct-24 14:33N 47°34' W 122°21'0 0.1
2014-Oct-24 14:28N 47°34' W 122°21'0 0.0
2014-Oct-24 13:33N 47°34' W 122°21'0 0.0
2014-Oct-24 13:33N 47°34' W 122°21'0 0.0
2014-Oct-24 12:33N 47°34' W 122°21'0 0.0
2014-Oct-24 12:33N 47°34' W 122°21'0 0.0
2014-Oct-24 11:33N 47°34' W 122°21'0 0.0
2014-Oct-24 11:33N 47°34' W 122°21'0 0.0
2014-Oct-24 10:33N 47°34' W 122°21'0 0.0
2014-Oct-24 10:33N 47°34' W 122°21'1 0.9
2014-Oct-24 09:33N 47°35' W 122°22'0 0.0
2014-Oct-24 09:33N 47°35' W 122°22'1 0.6
2014-Oct-24 08:33N 47°35' W 122°22'1 1.5
2014-Oct-24 07:33N 47°34' W 122°21'0 0.0
2014-Oct-23 00:30N 47°34' W 122°21'0 0.0
2014-Oct-23 00:29N 47°34' W 122°21'1 1.1
2014-Oct-22 23:34N 47°33' W 122°20'0 0.0
2014-Oct-22 23:28N 47°33' W 122°20'0 0.2
2014-Oct-22 22:34N 47°33' W 122°21'0 0.0
2014-Oct-22 22:33N 47°33' W 122°21'1 0.9
2014-Oct-22 21:33N 47°34' W 122°21'0 0.0
2014-Oct-22 21:33N 47°34' W 122°21'0 0.0
2014-Oct-22 20:34N 47°34' W 122°21'0 0.0
2014-Oct-22 20:33N 47°34' W 122°21'0 0.0
2014-Oct-22 19:34N 47°34' W 122°21'0 1.2
2014-Oct-22 19:33N 47°34' W 122°21'0 0.0
2014-Oct-22 18:33N 47°34' W 122°21'0 0.0
2014-Oct-22 18:33N 47°34' W 122°21'0 0.0
2014-Oct-22 17:33N 47°34' W 122°21'0 0.0
2014-Oct-22 17:33N 47°34' W 122°21'0 0.0
2014-Oct-22 16:33N 47°34' W 122°21'0 2.0
2014-Oct-22 16:22N 47°34' W 122°21'2 2.1
2014-Oct-22 15:33N 47°35' W 122°22'0 8.5
2014-Oct-22 15:33N 47°35' W 122°22'2 1.6
2014-Oct-22 14:33N 47°34' W 122°21'0 4.9
2014-Oct-22 14:33N 47°34' W 122°21'0 0.0
2014-Oct-21 22:14N 47°34' W 122°21'0 3.0
2014-Oct-21 22:12N 47°34' W 122°21'1 1.0
2014-Oct-21 21:33N 47°34' W 122°21'0 7.6
2014-Oct-21 21:31N 47°34' W 122°21'3 3.1
2014-Oct-21 20:33N 47°36' W 122°25'010.2
2014-Oct-21 20:31N 47°35' W 122°26'8 8.1
2014-Oct-21 19:33N 47°33' W 122°37'1 9.9
2014-Oct-21 19:26N 47°33' W 122°39'1 0.7
2014-Oct-21 18:33N 47°33' W 122°38'1 5.8
2014-Oct-21 18:26N 47°34' W 122°37'4 4.4
2014-Oct-21 17:34N 47°34' W 122°31'1 6.1
2014-Oct-21 17:26N 47°34' W 122°30'5 5.8
2014-Oct-21 16:33N 47°36' W 122°23'0 7.0
2014-Oct-21 16:31N 47°36' W 122°23'3 3.3
2014-Oct-21 15:34N 47°33' W 122°20'0 1.0
2014-Oct-21 15:30N 47°33' W 122°20'1 1.3
2014-Oct-21 14:34N 47°34' W 122°21'0 4.5
2014-Oct-21 14:31N 47°34' W 122°21'2 0.1
2014-Oct-20 20:40N 47°33' W 122°20'0 0.1
2014-Oct-20 20:33N 47°33' W 122°20'3 3.7
2014-Oct-20 19:49N 47°35' W 122°21'0 1.4
2014-Oct-20 19:33N 47°35' W 122°22'0 2.1
2014-Oct-20 19:29N 47°35' W 122°22'1 1.0
2014-Oct-20 18:33N 47°34' W 122°21'0 3.2
2014-Oct-20 18:28N 47°34' W 122°21'0 0.1
2014-Oct-20 17:33N 47°34' W 122°21'1 0.8
2014-Oct-20 16:33N 47°33' W 122°21'2 2.1
2014-Oct-20 15:33N 47°35' W 122°21'1 0.7
2014-Oct-20 14:33N 47°35' W 122°22'2 0.1
2014-Oct-19 16:41N 47°33' W 122°20'0 0.0
2014-Oct-19 16:33N 47°33' W 122°20'0 0.0
2014-Oct-19 16:31N 47°33' W 122°20'4 4.7
2014-Oct-19 15:33N 47°37' W 122°23'0 5.2
2014-Oct-19 15:31N 47°37' W 122°23'3 2.8
2014-Oct-19 14:33N 47°35' W 122°22'0 9.9
2014-Oct-19 14:31N 47°35' W 122°22'1 0.0
2014-Oct-18 02:11N 47°34' W 122°21'0 2.8
2014-Oct-18 02:07N 47°34' W 122°21'1 2.0
2014-Oct-18 01:33N 47°35' W 122°22'0 9.5
2014-Oct-18 01:32N 47°35' W 122°22'1 0.6
2014-Oct-18 00:33N 47°35' W 122°22'0 8.8
2014-Oct-18 00:32N 47°35' W 122°22'1 0.9
2014-Oct-17 23:33N 47°34' W 122°21'0 3.2
2014-Oct-17 23:32N 47°34' W 122°21'2 1.6
2014-Oct-17 22:33N 47°36' W 122°22'0 0.0
2014-Oct-17 22:32N 47°36' W 122°22'1 1.3
2014-Oct-17 21:33N 47°34' W 122°21'0 5.6
2014-Oct-17 21:31N 47°34' W 122°21'0 0.2
2014-Oct-17 20:33N 47°34' W 122°21'0 0.0
2014-Oct-17 20:11N 47°34' W 122°21'0 0.0
2014-Oct-17 19:33N 47°34' W 122°21'0 0.1
2014-Oct-17 19:31N 47°34' W 122°21'1 0.7
2014-Oct-17 18:34N 47°35' W 122°22'0 8.0
2014-Oct-17 18:31N 47°35' W 122°22'1 1.1
2014-Oct-17 17:33N 47°36' W 122°22'0 7.7
2014-Oct-17 17:31N 47°36' W 122°23'5 5.7
2014-Oct-17 16:34N 47°37' W 122°31'0 1.0
2014-Oct-17 16:31N 47°37' W 122°31'5 5.5
2014-Oct-17 15:33N 47°38' W 122°23'0 1.1
2014-Oct-17 15:31N 47°38' W 122°23'0 0.5
2014-Oct-17 14:33N 47°37' W 122°23'0 1.6
2014-Oct-17 14:31N 47°37' W 122°23'3 2.9
2014-Oct-17 13:33N 47°35' W 122°22'0 8.8
2014-Oct-17 13:31N 47°34' W 122°21'1 0.0
2014-Oct-16 19:19N 47°34' W 122°21'0 0.7
2014-Oct-16 19:18N 47°34' W 122°21'2 2.4
2014-Oct-16 18:33N 47°32' W 122°20'0 0.0
2014-Oct-16 18:33N 47°32' W 122°20'0 0.3
2014-Oct-16 17:33N 47°33' W 122°20'0 7.6
2014-Oct-16 17:33N 47°33' W 122°20'1 0.8
2014-Oct-16 16:33N 47°33' W 122°21'0 5.2
2014-Oct-16 16:33N 47°33' W 122°21'0 0.2
2014-Oct-16 15:33N 47°33' W 122°21'0 4.7
2014-Oct-16 15:33N 47°33' W 122°21'0 0.1
2014-Oct-16 14:33N 47°33' W 122°21'0 0.0
2014-Oct-16 14:33N 47°33' W 122°21'1 1.0
2014-Oct-16 13:33N 47°34' W 122°21'0 0.0
2014-Oct-16 13:33N 47°34' W 122°21'0 0.0
2014-Oct-16 12:33N 47°34' W 122°21'0 0.9
2014-Oct-16 12:33N 47°34' W 122°21'0 0.0
2014-Oct-16 11:33N 47°34' W 122°21'0 0.0
2014-Oct-16 11:28N 47°34' W 122°21'0 0.0
2014-Oct-16 10:33N 47°34' W 122°21'0 0.3
2014-Oct-16 10:32N 47°34' W 122°21'0 0.0
2014-Oct-16 09:33N 47°34' W 122°21'0 0.0
2014-Oct-16 09:32N 47°34' W 122°21'0 0.0
2014-Oct-16 08:32N 47°34' W 122°21'0 0.0
2014-Oct-16 08:32N 47°34' W 122°21'0 0.0
2014-Oct-16 07:33N 47°34' W 122°21'0 0.0
2014-Oct-16 07:32N 47°34' W 122°21'0 0.0
2014-Oct-16 06:33N 47°34' W 122°21'0 0.0
2014-Oct-16 06:32N 47°34' W 122°21'0 0.0
2014-Oct-16 05:57N 47°34' W 122°21'0 0.0
2014-Oct-16 05:33N 47°34' W 122°21'0 0.4
2014-Oct-16 04:33N 47°34' W 122°21'0 9.6
2014-Oct-16 04:32N 47°33' W 122°21'1 1.3
2014-Oct-16 03:33N 47°35' W 122°22'0 6.9
2014-Oct-16 03:32N 47°34' W 122°21'1 0.5
2014-Oct-16 02:33N 47°34' W 122°21'0 0.0
2014-Oct-16 02:31N 47°34' W 122°21'0 0.0
2014-Oct-16 01:33N 47°34' W 122°21'0 0.0
2014-Oct-16 01:31N 47°34' W 122°21'1 1.0
2014-Oct-16 00:33N 47°33' W 122°21'0 0.0
2014-Oct-16 00:26N 47°33' W 122°21'1 1.0
2014-Oct-15 23:33N 47°34' W 122°21'0 0.0
2014-Oct-15 23:31N 47°34' W 122°21'0 0.0
2014-Oct-15 22:33N 47°34' W 122°21'0 0.0
2014-Oct-15 22:01N 47°34' W 122°21'0 0.0
2014-Oct-15 21:33N 47°34' W 122°21'0 0.0
2014-Oct-15 21:31N 47°34' W 122°21'0 0.0
2014-Oct-15 20:33N 47°34' W 122°21'0 0.0
2014-Oct-15 20:31N 47°34' W 122°21'0 0.0
2014-Oct-15 19:33N 47°34' W 122°21'0 0.0
2014-Oct-15 19:31N 47°34' W 122°21'0 0.3
2014-Oct-15 18:33N 47°34' W 122°21'0 6.4
2014-Oct-15 18:31N 47°34' W 122°21'  
Track history (hours):
 
Tides and Currents Weather Stations Pressure Air Temp Water Temp Dewpoint Dewpoint Depression Visibility Wind Speed Wind Dir Waves Ship Positions

Westrac

Owner: WESTERN TOWBOAT CO, SEATTLE, WA. More information available from US FCC via Universal Licensing System and Coast Guard Vessel Documentation Center.

Last reported at 2014-Oct-25 18:07 UTC. Time now 2014-Oct-25 20:35 UTC.
Position N 47°34' W 122°21'.

Length 23 m; draft 5 m.

Type: Tug. MMSI: 366993010.

Date/timePositionNaut miles runAvg speedWind from/ knotsBaromVisibWave heightAir tempDewpointWater temp
2014-Oct-25 18:07N 47°34' W 122°21'0 0.4
2014-Oct-25 18:04N 47°34' W 122°21'1 1.5
2014-Oct-25 17:33N 47°33' W 122°21'1 8.4
2014-Oct-25 17:28N 47°34' W 122°21'1 1.5
2014-Oct-25 16:33N 47°35' W 122°21'0 0.2
2014-Oct-25 16:28N 47°35' W 122°21'1 0.1
2014-Oct-25 00:57N 47°34' W 122°21'1 3.1
2014-Oct-25 00:33N 47°35' W 122°22'0 3.8
2014-Oct-25 00:32N 47°35' W 122°22'2 2.3
2014-Oct-24 23:33N 47°33' W 122°20'0 7.4
2014-Oct-24 23:32N 47°33' W 122°21'2 2.4
2014-Oct-24 22:33N 47°35' W 122°22'0 0.6
2014-Oct-24 22:31N 47°36' W 122°22'3 2.9
2014-Oct-24 21:33N 47°33' W 122°20'0 2.4
2014-Oct-24 21:31N 47°33' W 122°20'0 0.2
2014-Oct-24 20:33N 47°33' W 122°20'1 3.6
2014-Oct-24 20:10N 47°34' W 122°21'1 2.1
2014-Oct-24 19:33N 47°35' W 122°21'0 0.0
2014-Oct-24 19:30N 47°35' W 122°21'0 0.0
2014-Oct-24 18:33N 47°35' W 122°21'2 5.8
2014-Oct-24 18:14N 47°34' W 122°21'1 0.9
2014-Oct-24 17:33N 47°34' W 122°21'0 0.1
2014-Oct-24 17:29N 47°34' W 122°21'0 0.0
2014-Oct-24 16:33N 47°34' W 122°21'0 0.1
2014-Oct-24 16:28N 47°34' W 122°21'0 0.0
2014-Oct-24 15:33N 47°34' W 122°21'0 0.0
2014-Oct-24 15:29N 47°34' W 122°21'0 0.0
2014-Oct-24 14:33N 47°34' W 122°21'0 0.1
2014-Oct-24 14:28N 47°34' W 122°21'0 0.0
2014-Oct-24 13:33N 47°34' W 122°21'0 0.0
2014-Oct-24 13:33N 47°34' W 122°21'0 0.0
2014-Oct-24 12:33N 47°34' W 122°21'0 0.0
2014-Oct-24 12:33N 47°34' W 122°21'0 0.0
2014-Oct-24 11:33N 47°34' W 122°21'0 0.0
2014-Oct-24 11:33N 47°34' W 122°21'0 0.0
2014-Oct-24 10:33N 47°34' W 122°21'0 0.0
2014-Oct-24 10:33N 47°34' W 122°21'1 0.9
2014-Oct-24 09:33N 47°35' W 122°22'0 0.0
2014-Oct-24 09:33N 47°35' W 122°22'1 0.6
2014-Oct-24 08:33N 47°35' W 122°22'1 1.5
2014-Oct-24 07:33N 47°34' W 122°21'0 0.0
2014-Oct-23 00:30N 47°34' W 122°21'0 0.0
2014-Oct-23 00:29N 47°34' W 122°21'1 1.1
2014-Oct-22 23:34N 47°33' W 122°20'0 0.0
2014-Oct-22 23:28N 47°33' W 122°20'0 0.2
2014-Oct-22 22:34N 47°33' W 122°21'0 0.0
2014-Oct-22 22:33N 47°33' W 122°21'1 0.9
2014-Oct-22 21:33N 47°34' W 122°21'0 0.0
2014-Oct-22 21:33N 47°34' W 122°21'0 0.0
2014-Oct-22 20:34N 47°34' W 122°21'0 0.0
2014-Oct-22 20:33N 47°34' W 122°21'0 0.0
2014-Oct-22 19:34N 47°34' W 122°21'0 1.2
2014-Oct-22 19:33N 47°34' W 122°21'0 0.0
2014-Oct-22 18:33N 47°34' W 122°21'0 0.0
2014-Oct-22 18:33N 47°34' W 122°21'0 0.0
2014-Oct-22 17:33N 47°34' W 122°21'0 0.0
2014-Oct-22 17:33N 47°34' W 122°21'0 0.0
2014-Oct-22 16:33N 47°34' W 122°21'0 2.0
2014-Oct-22 16:22N 47°34' W 122°21'2 2.1
2014-Oct-22 15:33N 47°35' W 122°22'0 8.5
2014-Oct-22 15:33N 47°35' W 122°22'2 1.6
2014-Oct-22 14:33N 47°34' W 122°21'0 4.9
2014-Oct-22 14:33N 47°34' W 122°21'0 0.0
2014-Oct-21 22:14N 47°34' W 122°21'0 3.0
2014-Oct-21 22:12N 47°34' W 122°21'1 1.0
2014-Oct-21 21:33N 47°34' W 122°21'0 7.6
2014-Oct-21 21:31N 47°34' W 122°21'3 3.1
2014-Oct-21 20:33N 47°36' W 122°25'010.2
2014-Oct-21 20:31N 47°35' W 122°26'8 8.1
2014-Oct-21 19:33N 47°33' W 122°37'1 9.9
2014-Oct-21 19:26N 47°33' W 122°39'1 0.7
2014-Oct-21 18:33N 47°33' W 122°38'1 5.8
2014-Oct-21 18:26N 47°34' W 122°37'4 4.4
2014-Oct-21 17:34N 47°34' W 122°31'1 6.1
2014-Oct-21 17:26N 47°34' W 122°30'5 5.8
2014-Oct-21 16:33N 47°36' W 122°23'0 7.0
2014-Oct-21 16:31N 47°36' W 122°23'3 3.3
2014-Oct-21 15:34N 47°33' W 122°20'0 1.0
2014-Oct-21 15:30N 47°33' W 122°20'1 1.3
2014-Oct-21 14:34N 47°34' W 122°21'0 4.5
2014-Oct-21 14:31N 47°34' W 122°21'2 0.1
2014-Oct-20 20:40N 47°33' W 122°20'0 0.1
2014-Oct-20 20:33N 47°33' W 122°20'3 3.7
2014-Oct-20 19:49N 47°35' W 122°21'0 1.4
2014-Oct-20 19:33N 47°35' W 122°22'0 2.1
2014-Oct-20 19:29N 47°35' W 122°22'1 1.0
2014-Oct-20 18:33N 47°34' W 122°21'0 3.2
2014-Oct-20 18:28N 47°34' W 122°21'0 0.1
2014-Oct-20 17:33N 47°34' W 122°21'1 0.8
2014-Oct-20 16:33N 47°33' W 122°21'2 2.1
2014-Oct-20 15:33N 47°35' W 122°21'1 0.7
2014-Oct-20 14:33N 47°35' W 122°22'2 0.1
2014-Oct-19 16:41N 47°33' W 122°20'0 0.0
2014-Oct-19 16:33N 47°33' W 122°20'0 0.0
2014-Oct-19 16:31N 47°33' W 122°20'4 4.7
2014-Oct-19 15:33N 47°37' W 122°23'0 5.2
2014-Oct-19 15:31N 47°37' W 122°23'3 2.8
2014-Oct-19 14:33N 47°35' W 122°22'0 9.9
2014-Oct-19 14:31N 47°35' W 122°22'1 0.0
2014-Oct-18 02:11N 47°34' W 122°21'0 2.8
2014-Oct-18 02:07N 47°34' W 122°21'1 2.0
2014-Oct-18 01:33N 47°35' W 122°22'0 9.5
2014-Oct-18 01:32N 47°35' W 122°22'1 0.6
2014-Oct-18 00:33N 47°35' W 122°22'0 8.8
2014-Oct-18 00:32N 47°35' W 122°22'1 0.9
2014-Oct-17 23:33N 47°34' W 122°21'0 3.2
2014-Oct-17 23:32N 47°34' W 122°21'2 1.6
2014-Oct-17 22:33N 47°36' W 122°22'0 0.0
2014-Oct-17 22:32N 47°36' W 122°22'1 1.3
2014-Oct-17 21:33N 47°34' W 122°21'0 5.6
2014-Oct-17 21:31N 47°34' W 122°21'0 0.2
2014-Oct-17 20:33N 47°34' W 122°21'0 0.0
2014-Oct-17 20:11N 47°34' W 122°21'0 0.0
2014-Oct-17 19:33N 47°34' W 122°21'0 0.1
2014-Oct-17 19:31N 47°34' W 122°21'1 0.7
2014-Oct-17 18:34N 47°35' W 122°22'0 8.0
2014-Oct-17 18:31N 47°35' W 122°22'1 1.1
2014-Oct-17 17:33N 47°36' W 122°22'0 7.7
2014-Oct-17 17:31N 47°36' W 122°23'5 5.7
2014-Oct-17 16:34N 47°37' W 122°31'0 1.0
2014-Oct-17 16:31N 47°37' W 122°31'5 5.5
2014-Oct-17 15:33N 47°38' W 122°23'0 1.1
2014-Oct-17 15:31N 47°38' W 122°23'0 0.5
2014-Oct-17 14:33N 47°37' W 122°23'0 1.6
2014-Oct-17 14:31N 47°37' W 122°23'3 2.9
2014-Oct-17 13:33N 47°35' W 122°22'0 8.8
2014-Oct-17 13:31N 47°34' W 122°21'1 0.0
2014-Oct-16 19:19N 47°34' W 122°21'0 0.7
2014-Oct-16 19:18N 47°34' W 122°21'2 2.4
2014-Oct-16 18:33N 47°32' W 122°20'0 0.0
2014-Oct-16 18:33N 47°32' W 122°20'0 0.3
2014-Oct-16 17:33N 47°33' W 122°20'0 7.6
2014-Oct-16 17:33N 47°33' W 122°20'1 0.8
2014-Oct-16 16:33N 47°33' W 122°21'0 5.2
2014-Oct-16 16:33N 47°33' W 122°21'0 0.2
2014-Oct-16 15:33N 47°33' W 122°21'0 4.7
2014-Oct-16 15:33N 47°33' W 122°21'0 0.1
2014-Oct-16 14:33N 47°33' W 122°21'0 0.0
2014-Oct-16 14:33N 47°33' W 122°21'1 1.0
2014-Oct-16 13:33N 47°34' W 122°21'0 0.0
2014-Oct-16 13:33N 47°34' W 122°21'0 0.0
2014-Oct-16 12:33N 47°34' W 122°21'0 0.9
2014-Oct-16 12:33N 47°34' W 122°21'0 0.0
2014-Oct-16 11:33N 47°34' W 122°21'0 0.0
2014-Oct-16 11:28N 47°34' W 122°21'0 0.0
2014-Oct-16 10:33N 47°34' W 122°21'0 0.3
2014-Oct-16 10:32N 47°34' W 122°21'0 0.0
2014-Oct-16 09:33N 47°34' W 122°21'0 0.0
2014-Oct-16 09:32N 47°34' W 122°21'0 0.0
2014-Oct-16 08:32N 47°34' W 122°21'0 0.0
2014-Oct-16 08:32N 47°34' W 122°21'0 0.0
2014-Oct-16 07:33N 47°34' W 122°21'0 0.0
2014-Oct-16 07:32N 47°34' W 122°21'0 0.0
2014-Oct-16 06:33N 47°34' W 122°21'0 0.0
2014-Oct-16 06:32N 47°34' W 122°21'0 0.0
2014-Oct-16 05:57N 47°34' W 122°21'0 0.0
2014-Oct-16 05:33N 47°34' W 122°21'0 0.4
2014-Oct-16 04:33N 47°34' W 122°21'0 9.6
2014-Oct-16 04:32N 47°33' W 122°21'1 1.3
2014-Oct-16 03:33N 47°35' W 122°22'0 6.9
2014-Oct-16 03:32N 47°34' W 122°21'1 0.5
2014-Oct-16 02:33N 47°34' W 122°21'0 0.0
2014-Oct-16 02:31N 47°34' W 122°21'0 0.0
2014-Oct-16 01:33N 47°34' W 122°21'0 0.0
2014-Oct-16 01:31N 47°34' W 122°21'1 1.0
2014-Oct-16 00:33N 47°33' W 122°21'0 0.0
2014-Oct-16 00:26N 47°33' W 122°21'1 1.0
2014-Oct-15 23:33N 47°34' W 122°21'0 0.0
2014-Oct-15 23:31N 47°34' W 122°21'0 0.0
2014-Oct-15 22:33N 47°34' W 122°21'0 0.0
2014-Oct-15 22:01N 47°34' W 122°21'0 0.0
2014-Oct-15 21:33N 47°34' W 122°21'0 0.0
2014-Oct-15 21:31N 47°34' W 122°21'0 0.0
2014-Oct-15 20:33N 47°34' W 122°21'0 0.0
2014-Oct-15 20:31N 47°34' W 122°21'0 0.0
2014-Oct-15 19:33N 47°34' W 122°21'0 0.0
2014-Oct-15 19:31N 47°34' W 122°21'0 0.3
2014-Oct-15 18:33N 47°34' W 122°21'0 6.4
2014-Oct-15 18:31N 47°34' W 122°21'  

Dump ship's entire track history